Change the Weather History Date:

Wednesday, September 4, 2013

  Actual Average Record
Temperature  
Mean Temperature 84 °F -  
Max Temperature 98 °F 90 °F 109 °F (1998)
Min Temperature 70 °F 66 °F 55 °F (2010)
Cooling Degree Days 18    
Growing Degree Days 34 (Base 50)    
Moisture  
Dew Point 65 °F    
Average Humidity 56    
Maximum Humidity 90    
Minimum Humidity 30    
Precipitation  
Precipitation 0.00 in - - ()
Sea Level Pressure  
Sea Level Pressure 29.98 in    
Wind  
Wind Speed 6 mph (ENE)    
Max Wind Speed 10 mph    
Max Gust Speed 20 mph    
Visibility 10 miles    
Events      
Averages and records for this station are not official NWS values.
T = Trace of Precipitation, MM = Missing Value Source: NWS Daily Summary

Daily Weather History Graph

Daily Weather History Graph

Search for Another Location

Airport or City:

Trip Planner

Search our weather history database for the weather conditions in past years. The results will help you decide how hot, cold, wet, or windy it might be!

Date:

Astronomy

Sep. 04, 2013 Rise Set
Actual Time 7:05 AM CDT 7:49 PM CDT
Civil Twilight 6:40 AM CDT 8:14 PM CDT
Nautical Twilight 6:10 AM CDT 8:44 PM CDT
Astronomical Twilight 5:40 AM CDT 9:14 PM CDT
Moon 6:18 AM CDT 7:11 PM CDT
Length of Visible Light 13h 34m
Length of Day
12h 44m
Waning Crescent, 1% of the Moon is Illuminated
Sep 4
Waning Crescent
Sep 5
New
Sep 12
First Quarter
Sep 19
Full
Sep 26
Last Quarter

Hourly Weather History & Observations

Time (CDT) Temp. Heat Index Dew Point Humidity Pressure Visibility Wind Dir Wind Speed Gust Speed Precip Events Conditions
12:53 AM 75.0 °F - 64.0 °F 69% 29.95 in 10.0 mi North 5.8 mph - N/A   Clear
1:53 AM 73.0 °F - 64.0 °F 73% 29.94 in 10.0 mi North 4.6 mph - N/A   Clear
2:53 AM 73.9 °F - 64.9 °F 73% 29.94 in 10.0 mi North 6.9 mph - N/A   Clear
3:53 AM 73.9 °F - 66.0 °F 76% 29.94 in 10.0 mi North 5.8 mph - N/A   Clear
4:53 AM 73.9 °F - 66.9 °F 79% 29.95 in 10.0 mi North 3.5 mph - N/A   Clear
5:53 AM 71.1 °F - 68.0 °F 90% 29.96 in 10.0 mi North 3.5 mph - N/A   Clear
6:53 AM 70.0 °F - 66.9 °F 90% 29.99 in 10.0 mi North 5.8 mph - N/A   Clear
7:53 AM 73.0 °F - 68.0 °F 84% 30.00 in 10.0 mi North 4.6 mph - N/A   Clear
8:53 AM 79.0 °F - 68.0 °F 69% 30.01 in 10.0 mi ENE 6.9 mph - N/A   Clear
9:53 AM 82.9 °F 86.5 °F 69.1 °F 63% 30.02 in 10.0 mi ENE 4.6 mph - N/A   Clear
10:53 AM 86.0 °F 90.7 °F 70.0 °F 59% 30.03 in 10.0 mi Calm Calm - N/A   Clear
11:53 AM 90.0 °F 94.5 °F 69.1 °F 50% 30.03 in 10.0 mi Variable 4.6 mph - N/A   Clear
12:53 PM 93.9 °F 100.3 °F 70.0 °F 46% 30.01 in 10.0 mi SE 5.8 mph - N/A   Clear
1:53 PM 93.0 °F 95.9 °F 66.0 °F 41% 30.00 in 10.0 mi Variable 4.6 mph - N/A   Clear
2:53 PM 96.1 °F 98.3 °F 64.0 °F 35% 29.98 in 10.0 mi ENE 5.8 mph 19.6 mph N/A   Clear
3:53 PM 97.0 °F 99.3 °F 64.0 °F 34% 29.96 in 10.0 mi ESE 9.2 mph - N/A   Clear
4:53 PM 96.1 °F 96.4 °F 61.0 °F 31% 29.94 in 10.0 mi SE 6.9 mph - N/A   Partly Cloudy
5:53 PM 96.1 °F 96.0 °F 60.1 °F 30% 29.94 in 10.0 mi ESE 8.1 mph - N/A   Clear
6:53 PM 95.0 °F 95.2 °F 61.0 °F 32% 29.94 in 10.0 mi East 6.9 mph - N/A   Clear
7:53 PM 91.9 °F 91.8 °F 61.0 °F 35% 29.94 in 10.0 mi East 8.1 mph - N/A   Clear
8:53 PM 90.0 °F 90.6 °F 63.0 °F 40% 29.97 in 10.0 mi East 9.2 mph - N/A   Clear
9:53 PM 89.1 °F 90.0 °F 63.0 °F 42% 30.00 in 10.0 mi East 10.4 mph - N/A   Clear
10:53 PM 86.0 °F 86.8 °F 63.0 °F 46% 30.01 in 10.0 mi ESE 9.2 mph - N/A   Clear
11:53 PM 84.9 °F 86.6 °F 64.9 °F 51% 30.02 in 10.0 mi ESE 6.9 mph - N/A   Clear